Location: Aubrey
(33.1990°N, 85.1361°W)
Time: 13:06:30
(UTC+00:00)

Envisat - Pass Details

Date: 20 September 2021
Orbit: 764 x 766 km, 98.2° (Epoch: 23 October)

Event Time Altitude Azimuth Distance (km) Brightness Sun altitude
Rises 10:26:47 0° 17° (NNE) 3,234 6.6 -13.5°
Reaches altitude 10° 10:29:09 10° 22° (NNE) 2,304 5.9 -13.0°
Maximum altitude 10:34:08 55° 100° (E) 916 3.8 -12.0°
Drops below altitude 10° 10:39:04 10° 178° (S) 2,290 5.4 -10.9°
Sets 10:41:24 0° 183° (S) 3,212 6.1 -10.4°
